FW7989 Weather Reports


time (UTC)temp
F
wind
direction
speed
knots
gust
knots
rain 1hr
in
rain 24hr
in
rain mn
in
humidity
%
barometer
mb
20260508044100 50 78 1.7 6.1 0.00 0.00 0.00 83 1014.8
20260508043558 50 53 1.7 6.1 0.00 0.00 0.00 83 1014.7
20260508043104 50 0 1.7 3.5 0.00 0.00 0.00 82 1014.9
20260508042558 50 0 0.0 3.5 0.00 0.00 0.00 82 1014.9
20260508042101 51 72 0.9 7.0 0.00 0.00 0.00 81 1014.9
20260508041602 51 94 1.7 7.0 0.00 0.00 0.00 81 1014.8
20260508041058 51 130 2.6 7.8 0.00 0.00 0.00 80 1014.7
20260508040558 51 57 3.5 7.8 0.00 0.00 0.00 79 1014.7
20260508040104 51 109 2.6 7.0 0.00 0.00 0.00 77 1014.7
20260508035559 51 96 1.7 7.0 0.00 0.00 0.00 77 1014.8
20260508035059 51 132 2.6 7.0 0.00 0.00 0.00 77 1014.9
20260508034604 51 71 1.7 7.0 0.00 0.00 0.00 77 1014.9
20260508034058 51 69 2.6 7.0 0.00 0.00 0.00 77 1014.9
20260508033558 51 97 2.6 7.8 0.00 0.00 0.00 77 1015.0
20260508033058 51 82 1.7 7.8 0.00 0.00 0.00 77 1014.8
20260508032559 51 100 1.7 6.1 0.00 0.00 0.00 76 1014.9
20260508032101 51 88 2.6 6.1 0.00 0.00 0.00 76 1014.8
20260508031559 51 89 1.7 6.1 0.00 0.00 0.00 76 1014.9
20260508031101 51 110 2.6 6.1 0.00 0.00 0.00 76 1014.9
20260508030558 51 0 1.7 6.1 0.00 0.00 0.00 76 1015.0
20260508030116 51 99 1.7 6.1 0.00 0.00 0.00 76 1015.0
20260508025557 51 77 1.7 5.2 0.00 0.00 0.00 76 1015.0
20260508025058 51 92 0.9 5.2 0.00 0.00 0.00 76 1015.1
20260508024558 51 68 1.7 5.2 0.00 0.00 0.00 76 1015.0
20260508024059 51 126 1.7 5.2 0.00 0.00 0.00 77 1015.1
20260508023559 51 124 1.7 5.2 0.00 0.00 0.00 76 1015.1
20260508023104 51 109 1.7 5.2 0.00 0.00 0.00 77 1015.1
20260508022558 51 102 0.9 3.5 0.00 0.00 0.00 77 1015.0
20260508022059 51 74 1.7 4.3 0.00 0.00 0.00 77 1015.1
20260508021601 51 79 1.7 4.3 0.00 0.00 0.00 77 1015.1
20260508021101 51 76 0.9 3.5 0.00 0.00 0.00 77 1015.0
20260508020558 51 105 0.9 3.5 0.00 0.00 0.00 76 1015.1
20260508020058 51 0 0.0 5.2 0.00 0.00 0.00 76 1015.0
20260508015558 51 112 0.9 5.2 0.00 0.00 0.00 75 1015.1
20260508015058 51 0 0.9 5.2 0.00 0.00 0.00 75 1015.0
20260508014600 51 140 0.9 7.0 0.00 0.00 0.00 75 1014.9
20260508014100 52 88 1.7 7.0 0.00 0.00 0.00 76 1015.0
20260508013601 52 105 1.7 6.1 0.00 0.00 0.00 75 1015.0
20260508013059 52 106 1.7 5.2 0.00 0.00 0.00 75 1015.0
20260508012559 52 83 0.9 3.5 0.00 0.00 0.00 75 1015.1
20260508012059 52 107 0.9 3.5 0.00 0.00 0.00 75 1015.2
20260508011557 52 93 0.9 4.3 0.00 0.00 0.00 74 1015.2
20260508011058 52 118 0.9 4.3 0.00 0.00 0.00 74 1015.2
20260508010602 52 99 0.9 7.0 0.00 0.00 0.00 74 1015.2
20260508010057 52 165 0.9 7.0 0.00 0.00 0.00 74 1015.1
20260508005559 52 80 1.7 5.2 0.00 0.00 0.00 73 1015.2
20260508005059 52 99 0.9 4.3 0.00 0.00 0.00 73 1015.2
20260508004602 52 129 0.9 4.3 0.00 0.00 0.00 73 1015.2
20260508004059 52 95 0.9 6.1 0.00 0.00 0.00 73 1015.2
20260508003559 52 101 0.9 6.1 0.00 0.00 0.00 72 1015.4
20260508003108 52 106 1.7 6.1 0.00 0.00 0.00 72 1015.3
20260508002559 52 83 0.0 2.6 0.00 0.00 0.00 72 1015.3
20260508002059 52 150 0.0 3.5 0.00 0.00 0.00 71 1015.4
20260508001600 52 0 0.0 6.1 0.00 0.00 0.00 71 1015.3
20260508001058 52 161 1.7 6.1 0.00 0.00 0.00 71 1015.4
20260508000559 52 0 0.9 2.6 0.00 0.00 0.00 70 1015.4
20260507235602 52 117 0.9 3.5 0.00 0.00 0.00 70 1015.4
20260507235058 52 109 0.9 4.3 0.00 0.00 0.00 70 1015.4
20260507234557 52 136 1.7 5.2 0.00 0.00 0.00 70 1015.4
20260507234101 52 123 0.9 5.2 0.00 0.00 0.00 69 1015.4
20260507233558 52 126 1.7 5.2 0.00 0.00 0.00 68 1015.4
20260507233059 52 105 0.9 2.6 0.00 0.00 0.00 67 1015.3
20260507232600 52 80 0.9 2.6 0.00 0.00 0.00 67 1015.4
20260507232102 52 82 0.0 2.6 0.00 0.00 0.00 66 1015.5
20260507231602 52 139 0.9 2.6 0.00 0.00 0.00 66 1015.4
20260507231100 52 0 0.9 2.6 0.00 0.00 0.00 66 1015.4
20260507230602 52 128 0.0 3.5 0.00 0.00 0.00 67 1015.5
20260507230101 52 125 0.0 3.5 0.00 0.00 0.00 68 1015.5
20260507225559 51 0 0.9 3.5 0.00 0.00 0.00 69 1015.5
20260507225059 51 95 0.9 2.6 0.00 0.00 0.00 70 1015.5
20260507224616 51 96 0.9 2.6 0.00 0.00 0.00 72 1015.4
20260507224058 51 0 0.9 2.6 0.00 0.00 0.00 73 1015.4
20260507223558 51 0 0.0 2.6 0.00 0.00 0.00 75 1015.5
20260507223104 51 110 0.9 2.6 0.00 0.00 0.00 75 1015.5
20260507222559 51 82 0.0 1.7 0.00 0.00 0.00 77 1015.5
20260507222059 51 0 0.0 1.7 0.00 0.00 0.00 76 1015.6
20260507221600 52 0 0.0 1.7 0.00 0.00 0.00 74 1015.5
20260507221100 52 0 0.0 1.7 0.00 0.00 0.00 72 1015.5
20260507220558 52 0 0.0 1.7 0.00 0.00 0.00 73 1015.5
20260507220104 51 99 0.9 3.5 0.00 0.00 0.00 73 1015.6
20260507215559 51 115 0.9 3.5 0.00 0.00 0.00 73 1015.6
20260507215059 51 155 0.9 3.5 0.00 0.00 0.00 74 1015.6
20260507214606 51 92 0.0 3.5 0.00 0.00 0.00 76 1015.7
20260507214058 50 69 0.9 3.5 0.00 0.00 0.00 78 1015.6
20260507213558 50 0 0.0 0.0 0.00 0.00 0.00 81 1015.7
20260507213059 51 0 0.0 0.0 0.00 0.00 0.00 81 1015.7
20260507212558 51 0 0.0 0.0 0.00 0.00 0.00 79 1015.6
20260507212100 52 0 0.0 0.0 0.00 0.00 0.00 77 1015.6
20260507211629 52 0 0.0 1.7 0.00 0.00 0.00 78 1015.4
20260507211058 52 0 0.0 1.7 0.00 0.00 0.00 78 1015.5
20260507210559 52 0 0.0 1.7 0.00 0.00 0.00 78 1015.4
20260507210103 52 0 0.9 1.7 0.00 0.00 0.00 78 1015.4
20260507205602 52 57 0.9 1.7 0.00 0.00 0.00 78 1015.4
20260507205059 52 57 0.9 1.7 0.00 0.00 0.00 79 1015.4
20260507204606 52 57 0.9 1.7 0.00 0.00 0.00 79 1015.4
20260507204058 52 0 0.0 0.9 0.00 0.00 0.00 79 1015.4
20260507203559 52 0 0.0 0.9 0.00 0.00 0.00 79 1015.4
20260507203110 52 0 0.0 1.7 0.00 0.00 0.00 78 1015.2
20260507202558 53 0 0.0 1.7 0.00 0.00 0.00 77 1015.3
20260507202058 53 57 0.9 1.7 0.00 0.00 0.00 77 1015.2
20260507201613 53 57 0.9 1.7 0.00 0.00 0.00 77 1015.1
20260507201059 53 57 0.0 1.7 0.00 0.00 0.00 78 1015.1
20260507200601 53 0 0.0 0.9 0.00 0.00 0.00 78 1015.1
20260507200104 53 57 0.0 1.7 0.00 0.00 0.00 77 1015.0
20260507195604 54 0 0.0 1.7 0.00 0.00 0.00 77 1015.0
20260507195102 54 28 0.0 1.7 0.00 0.00 0.00 75 1015.0
20260507194558 54 0 0.0 1.7 0.00 0.00 0.00 76 1015.0
20260507194103 54 347 0.9 1.7 0.00 0.00 0.00 75 1015.0
20260507193558 54 340 0.0 0.9 0.00 0.00 0.00 76 1015.0
20260507193101 54 0 0.0 0.0 0.00 0.00 0.00 77 1014.9
20260507192558 54 0 0.0 0.0 0.00 0.00 0.00 76 1014.9
20260507192058 55 0 0.0 0.9 0.00 0.00 0.00 76 1014.7
20260507191558 55 0 0.0 0.9 0.00 0.00 0.00 74 1014.9
20260507191057 55 0 0.0 0.9 0.00 0.00 0.00 76 1014.7
20260507190604 55 0 0.0 1.7 0.00 0.00 0.00 75 1014.6
20260507190057 55 0 0.0 1.7 0.00 0.00 0.00 73 1014.6
20260507185557 55 336 0.0 1.7 0.00 0.00 0.00 72 1014.6
20260507185102 55 336 0.0 3.5 0.00 0.00 0.00 72 1014.6
20260507184556 55 319 0.9 3.5 0.00 0.00 0.00 73 1014.6
20260507184059 56 288 1.7 3.5 0.00 0.00 0.00 73 1014.7
20260507183558 56 319 1.7 3.5 0.00 0.00 0.00 73 1014.7
20260507183058 56 270 1.7 5.2 0.00 0.00 0.00 71 1014.8
20260507182559 57 277 0.9 5.2 0.00 0.00 0.00 72 1014.8
20260507182102 57 291 2.6 5.2 0.00 0.00 0.00 69 1014.7
20260507181559 58 298 1.7 2.6 0.00 0.00 0.00 70 1014.6
20260507181058 58 288 1.7 3.5 0.00 0.00 0.00 70 1014.6
20260507180602 58 327 0.9 3.5 0.00 0.00 0.00 67 1014.6
20260507180058 59 302 0.9 3.5 0.00 0.00 0.00 67 1014.6
20260507175558 59 344 0.9 1.7 0.00 0.00 0.00 66 1014.5
20260507175058 59 0 0.0 3.5 0.00 0.00 0.00 65 1014.6
20260507174600 60 0 0.9 3.5 0.00 0.00 0.00 65 1014.6
20260507174059 59 324 1.7 3.5 0.00 0.00 0.00 67 1014.5
20260507173559 59 306 0.9 3.5 0.00 0.00 0.00 66 1014.5
20260507173100 59 295 1.7 5.2 0.00 0.00 0.00 66 1014.5
20260507172601 59 352 2.6 6.1 0.00 0.00 0.00 66 1014.5
20260507172059 59 311 2.6 6.1 0.00 0.00 0.00 65 1014.6
20260507171607 59 294 0.9 4.3 0.00 0.00 0.00 68 1014.5
20260507171059 59 243 1.7 4.3 0.00 0.00 0.00 70 1014.5
20260507170559 59 269 1.7 7.0 0.00 0.00 0.00 68 1014.6
20260507170059 59 292 2.6 7.0 0.00 0.00 0.00 67 1014.5
20260507165558 59 317 1.7 6.1 0.00 0.00 0.00 69 1014.5
20260507165100 59 352 3.5 7.0 0.00 0.00 0.00 70 1014.5
20260507164602 59 317 3.5 7.0 0.00 0.00 0.00 68 1014.5
20260507164058 60 284 0.9 6.1 0.00 0.00 0.00 67 1014.5
20260507163603 60 251 3.5 6.1 0.00 0.00 0.00 69 1014.6
20260507163058 61 234 2.6 6.1 0.00 0.00 0.00 63 1014.5
20260507162558 61 291 0.9 8.7 0.00 0.00 0.00 63 1014.5
20260507162058 61 229 3.5 8.7 0.00 0.00 0.00 64 1014.5
20260507161600 61 166 2.6 8.7 0.00 0.00 0.00 58 1014.5
20260507161059 61 221 4.3 11.3 0.00 0.00 0.00 55 1014.5
20260507160559 61 232 5.2 11.3 0.00 0.00 0.00 57 1014.6
20260507160106 62 205 4.3 9.6 0.00 0.00 0.00 55 1014.6
20260507155558 62 198 3.5 7.8 0.00 0.00 0.00 59 1014.6
20260507155058 61 154 3.5 7.8 0.00 0.00 0.00 59 1014.5
20260507154558 60 184 4.3 7.8 0.00 0.00 0.00 58 1014.6
20260507154059 60 206 1.7 8.7 0.00 0.00 0.00 59 1014.6
20260507153558 60 208 4.3 8.7 0.00 0.00 0.00 60 1014.5
20260507153102 60 280 4.3 8.7 0.00 0.00 0.00 61 1014.6
20260507152601 60 245 1.7 7.8 0.00 0.00 0.00 65 1014.6
20260507152059 60 277 3.5 7.8 0.00 0.00 0.00 61 1014.6
20260507151558 60 201 1.7 6.1 0.00 0.00 0.00 61 1014.6
20260507151058 60 211 2.6 6.1 0.00 0.00 0.00 61 1014.6
20260507150558 60 224 2.6 6.1 0.00 0.00 0.00 64 1014.6
20260507150058 60 202 0.9 5.2 0.00 0.00 0.00 61 1014.7
20260507145558 60 0 0.0 1.7 0.00 0.00 0.00 63 1014.7
20260507145058 59 0 0.0 2.6 0.00 0.00 0.00 66 1014.7
20260507144559 59 286 0.9 6.1 0.00 0.00 0.00 66 1014.8
20260507144059 59 235 0.9 6.1 0.00 0.00 0.00 67 1014.9
20260507143600 59 301 2.6 6.1 0.00 0.00 0.00 68 1014.9
20260507143100 59 291 2.6 6.1 0.00 0.00 0.00 69 1014.9
20260507142558 59 313 2.6 6.1 0.00 0.00 0.00 68 1014.9
20260507142059 59 274 1.7 5.2 0.00 0.00 0.00 67 1015.0
20260507141558 59 294 1.7 5.2 0.00 0.00 0.00 66 1015.0
20260507141139 59 313 1.7 3.5 0.00 0.00 0.00 68 1015.0
20260507140600 59 304 0.9 2.6 0.00 0.00 0.00 68 1015.1
20260507140109 60 0 0.9 3.5 0.00 0.00 0.00 65 1015.1
20260507135559 60 291 0.9 3.5 0.00 0.00 0.00 65 1015.0
20260507135103 60 309 0.9 2.6 0.00 0.00 0.00 67 1014.9
20260507134558 59 311 0.9 2.6 0.00 0.00 0.00 68 1015.0
20260507134058 59 296 0.9 2.6 0.00 0.00 0.00 66 1015.0
20260507133559 58 294 0.9 2.6 0.00 0.00 0.00 67 1015.0
20260507133056 58 332 0.0 2.6 0.00 0.00 0.00 71 1015.1
20260507132558 58 302 0.9 2.6 0.00 0.00 0.00 70 1015.1
20260507132059 57 0 0.9 2.6 0.00 0.00 0.00 71 1015.1
20260507131602 57 298 0.9 3.5 0.00 0.00 0.00 72 1015.1
20260507131059 57 298 1.7 3.5 0.00 0.00 0.00 72 1015.1
20260507130559 57 290 1.7 5.2 0.00 0.00 0.00 72 1015.1
20260507130057 57 306 2.6 5.2 0.00 0.00 0.00 75 1015.1
20260507125558 56 273 2.6 7.0 0.00 0.00 0.00 76 1015.2
20260507125058 56 289 2.6 7.8 0.00 0.00 0.00 74 1015.2
20260507124600 57 289 3.5 7.8 0.00 0.00 0.00 73 1015.2
20260507124059 57 316 1.7 7.8 0.00 0.00 0.00 73 1015.3
20260507123558 57 231 1.7 8.7 0.00 0.00 0.00 70 1015.4
20260507123100 57 282 4.3 8.7 0.00 0.00 0.00 66 1015.2
20260507122558 58 200 3.5 6.1 0.00 0.00 0.00 64 1015.2
20260507122059 58 189 2.6 7.0 0.00 0.00 0.00 61 1015.2
20260507121601 58 208 3.5 7.8 0.00 0.00 0.00 63 1015.2
20260507121058 58 182 4.3 7.8 0.00 0.00 0.00 60 1015.2
20260507120558 58 215 2.6 6.1 0.00 0.00 0.00 64 1015.2
20260507120059 59 192 2.6 6.1 0.00 0.00 0.00 61 1015.2
20260507115559 59 188 2.6 8.7 0.00 0.00 0.00 63 1015.2
20260507115058 59 150 3.5 9.6 0.00 0.00 0.00 63 1015.2
20260507114557 58 170 4.3 9.6 0.00 0.00 0.00 65 1015.3
20260507114058 58 173 4.3 9.6 0.00 0.00 0.00 64 1015.4
20260507113602 58 201 4.3 10.4 0.00 0.00 0.00 63 1015.4
20260507113059 58 165 6.1 10.4 0.00 0.00 0.00 62 1015.3
20260507112559 59 171 3.5 10.4 0.00 0.00 0.00 65 1015.3
20260507112101 59 254 3.5 10.4 0.00 0.00 0.00 63 1015.3
20260507111559 59 175 4.3 10.4 0.00 0.00 0.00 59 1015.3
20260507111058 60 211 5.2 10.4 0.00 0.00 0.00 64 1015.3
20260507110559 60 179 4.3 9.6 0.00 0.00 0.00 63 1015.3
20260507110101 60 146 4.3 10.4 0.00 0.00 0.00 64 1015.4
20260507105558 60 173 3.5 10.4 0.00 0.00 0.00 63 1015.4
20260507105058 59 180 5.2 10.4 0.00 0.00 0.00 62 1015.4
20260507104557 59 184 5.2 10.4 0.00 0.00 0.00 65 1015.5
20260507104059 59 178 5.2 8.7 0.00 0.00 0.00 64 1015.6
20260507103559 59 136 4.3 12.2 0.00 0.00 0.00 64 1015.4
20260507103057 59 156 5.2 12.2 0.00 0.00 0.00 63 1015.5
20260507102558 60 163 4.3 8.7 0.00 0.00 0.00 65 1015.5
20260507102058 60 188 3.5 8.7 0.00 0.00 0.00 67 1015.6
20260507101608 59 214 3.5 9.6 0.00 0.00 0.00 67 1015.6
20260507101058 59 201 4.3 9.6 0.00 0.00 0.00 68 1015.7
20260507100602 59 214 5.2 9.6 0.00 0.00 0.00 69 1015.7
20260507100101 60 203 5.2 9.6 0.00 0.00 0.00 66 1015.6
20260507095600 60 150 3.5 8.7 0.00 0.00 0.00 68 1015.6
20260507095059 60 159 3.5 9.6 0.00 0.00 0.00 67 1015.6
20260507094604 60 186 3.5 9.6 0.00 0.00 0.00 67 1015.5
20260507094101 60 0 3.5 7.8 0.00 0.00 0.00 70 1015.6
20260507093558 60 109 2.6 12.2 0.00 0.00 0.00 66 1015.4
20260507093100 59 135 2.6 12.2 0.00 0.00 0.00 70 1015.6
20260507092559 59 178 2.6 9.6 0.00 0.00 0.00 70 1015.6
20260507092058 59 188 4.3 9.6 0.00 0.00 0.00 72 1015.6
20260507091605 59 134 4.3 7.8 0.00 0.00 0.00 70 1015.7
20260507091058 58 171 4.3 7.8 0.00 0.00 0.00 74 1015.7
20260507090559 57 101 4.3 8.7 0.00 0.00 0.00 72 1015.8
20260507090113 57 178 4.3 8.7 0.00 0.00 0.00 74 1015.7
20260507085559 56 163 3.5 7.8 0.00 0.00 0.00 73 1015.8
20260507085059 56 134 3.5 7.0 0.00 0.00 0.00 72 1015.7
20260507084600 55 182 3.5 7.0 0.00 0.00 0.00 72 1015.7
20260507084059 55 103 3.5 7.0 0.00 0.00 0.00 73 1015.7
20260507083602 55 149 3.5 7.8 0.00 0.00 0.00 74 1015.7
20260507083102 54 128 3.5 7.8 0.00 0.00 0.00 75 1015.7
20260507082559 54 130 1.7 8.7 0.00 0.00 0.00 75 1015.7
20260507082059 53 90 4.3 8.7 0.00 0.00 0.00 74 1015.6
20260507081602 53 150 4.3 8.7 0.00 0.00 0.00 74 1015.7
20260507081059 53 150 2.6 7.8 0.00 0.00 0.00 76 1015.7
20260507080559 53 74 2.6 8.7 0.00 0.00 0.00 75 1015.7
20260507075558 52 96 3.5 8.7 0.00 0.00 0.00 74 1015.5
20260507075058 52 90 2.6 7.0 0.00 0.00 0.00 75 1015.5
20260507074559 52 150 2.6 7.0 0.00 0.00 0.00 74 1015.5
20260507074058 52 103 3.5 7.0 0.00 0.00 0.00 74 1015.5
20260507073558 52 88 0.9 7.0 0.00 0.00 0.00 75 1015.5
20260507073110 52 102 1.7 7.0 0.00 0.00 0.00 75 1015.4
20260507072559 52 0 2.6 7.0 0.00 0.00 0.00 75 1015.5
20260507072058 52 111 2.6 7.0 0.00 0.00 0.00 76 1015.5
20260507071600 51 91 2.6 7.0 0.00 0.00 0.00 77 1015.4
20260507071059 51 82 2.6 7.0 0.00 0.00 0.00 76 1015.4
20260507070559 51 78 1.7 7.0 0.00 0.00 0.00 76 1015.4
20260507070138 51 92 0.9 7.0 0.00 0.00 0.00 77 1015.4
20260507065602 50 114 3.5 7.0 0.00 0.00 0.00 77 1015.4
20260507065058 50 101 1.7 7.8 0.00 0.00 0.00 77 1015.3
20260507064600 50 98 1.7 7.8 0.00 0.00 0.00 78 1015.4
20260507064058 50 94 2.6 7.8 0.00 0.00 0.00 78 1015.3
20260507063559 49 100 0.9 7.0 0.00 0.00 0.00 78 1015.4
20260507063102 49 0 1.7 7.0 0.00 0.00 0.00 78 1015.4
20260507062558 49 98 2.6 7.0 0.00 0.00 0.00 79 1015.4
20260507062101 49 136 1.7 3.5 0.00 0.00 0.00 80 1015.5
20260507061559 48 0 0.0 3.5 0.00 0.00 0.00 80 1015.4
20260507061059 48 121 0.9 3.5 0.00 0.00 0.00 80 1015.4
20260507060558 48 150 0.0 3.5 0.00 0.00 0.00 80 1015.4
20260507060059 48 173 0.9 6.1 0.00 0.00 0.00 80 1015.3
20260507055559 48 123 0.9 6.1 0.00 0.00 0.00 80 1015.3
20260507055059 48 154 1.7 7.0 0.00 0.00 0.00 80 1015.3
20260507054613 47 108 2.6 7.0 0.00 0.00 0.00 79 1015.1
20260507054058 47 150 0.9 5.2 0.00 0.00 0.00 81 1015.0
20260507053600 47 119 1.7 4.3 0.00 0.00 0.00 81 1015.1
20260507053058 47 107 0.9 2.6 0.00 0.00 0.00 82 1015.0
20260507052600 47 86 0.0 1.7 0.00 0.00 0.00 82 1015.1
20260507052058 47 0 0.0 1.7 0.00 0.00 0.00 83 1015.1
20260507051556 47 0 0.0 1.7 0.00 0.00 0.00 82 1015.1
20260507051058 47 0 0.0 3.5 0.00 0.00 0.00 82 1015.1
20260507050558 46 0 0.0 3.5 0.00 0.00 0.00 81 1015.2
20260507050057 46 0 0.0 1.7 0.00 0.00 0.00 82 1015.0
20260507045601 46 0 0.0 0.9 0.00 0.00 0.00 81 1015.0
20260507045058 46 132 0.0 0.9 0.00 0.00 0.00 82 1015.0
20260507044603 46 0 0.0 0.0 0.00 0.00 0.00 83 1015.0